[[{"header":{"parameterUnit":"m.s-1","parameterCategory":1,"la1":30.2992,"la2":30.254,"lo1":-89.0895,"lo2":-89.0443,"dy":0.0025,"dx":0.0025,"nx":19,"ny":19,"refTime":"2026-05-14T03:00:00:Z","depth":0,"parameterNumber":2,"parameterNumberName":"U-component_of_WINDS"},"data":[0,0,0,1.431,1.4311,1.4366,1.4366,1.4439,1.444,0,0,0,0,0,0,0,0,0,0,0,1.4295,1.4295,1.431,1.4311,1.4366,1.4366,1.4439,1.444,0,0,0,0,0,0,0,0,0,0,0,1.4294,1.4295,1.4296,1.4311,1.4366,1.4366,1.4439,1.4396,0,0,0,0,0,0,0,0,0,0,1.4343,1.433,1.4295,1.4296,1.4312,1.4366,1.4366,1.4394,1.4399,1.4415,0,1.443,0,1.4436,1.4445,1.4445,0,0,0,1.431,1.4326,1.434,1.4296,1.4312,1.4366,1.4341,1.4397,1.4402,1.4422,1.4431,1.4433,1.4437,1.4445,1.4446,1.4543,1.4543,0,0,1.4307,1.4305,1.4336,1.4343,1.4335,1.4339,1.4343,1.44,1.441,1.4431,1.4435,1.4438,1.4446,1.4446,1.4542,1.4543,0,0,0,1.4299,1.4303,1.4315,1.434,1.435,1.4341,1.4345,1.4407,1.4412,1.4436,1.4439,1.4446,1.4447,1.4542,1.4542,1.4565,0,0,0,1.4297,1.4298,1.4314,1.4313,1.4349,1.4379,1.4351,1.4408,1.4414,1.4439,1.4446,1.4448,1.4541,1.4542,1.4563,1.4576,0,0,0,1.4291,1.4297,1.4306,1.4313,1.4337,1.4378,1.4386,1.4409,1.4416,1.4445,1.4448,1.4541,1.4542,1.4562,1.4573,1.4601,0,0,0,1.4283,1.4325,1.4306,1.4354,1.4336,1.4392,1.4386,1.4427,1.4455,1.4447,1.4541,1.4542,1.4561,1.4572,1.46,1.4624,1.4635,0,0,1.4334,1.4331,1.4359,1.4344,1.4403,1.4384,1.4446,1.4473,1.4477,1.4521,1.4523,1.4564,1.4573,1.4601,1.4693,1.4701,0,0,0,1.4375,1.4395,1.4411,1.4438,1.446,1.448,1.4497,1.4508,1.4545,1.4499,1.4582,1.4587,1.4604,1.4616,1.4623,1.4637,1.4548,1.4548,1.4548,1.4444,1.4448,1.4496,1.4508,1.4533,1.4552,1.4574,1.4591,1.4587,1.4607,1.4619,1.4674,1.4688,1.4693,1.4708,1.4633,1.4633,1.4633,1.4633,1.4519,1.4549,1.4545,1.459,1.4595,1.4632,1.4653,1.4649,1.4686,1.4665,1.4679,1.4656,1.4702,1.4715,1.4635,1.4634,1.4634,1.4634,1.4634,1.4565,1.458,1.4592,1.4632,1.4663,1.4673,1.4709,1.4712,1.4715,1.473,1.4744,1.4743,1.4743,1.4736,1.4737,1.4737,1.4737,1.4737,1.4737,1.4606,1.462,1.4649,1.4678,1.4696,1.4721,1.4742,1.476,1.4781,1.478,1.478,1.4775,1.4706,1.4688,1.474,1.474,1.4739,1.4739,1.4739,1.4681,1.4665,1.471,1.4729,1.4764,1.4794,1.4799,1.4836,1.4852,1.4869,1.4862,1.481,1.4806,1.4801,1.4786,1.486,1.486,1.486,1.486,1.4719,1.4718,1.4766,1.4795,1.4825,1.4834,1.4887,1.4904,1.492,1.493,1.492,1.4901,1.4896,1.4895,1.4888,1.4874,1.4969,1.4969,1.4969,1.4765,1.4767,1.481,1.4826,1.4854,1.4878,1.4928,1.4963,1.4977,1.4974,1.4938,1.4934,1.4903,1.4893,1.4887,1.4876,1.4851,0,0]},{"header":{"parameterUnit":"m.s-1","parameterCategory":1,"la1":30.2992,"la2":30.254,"lo1":-89.0895,"lo2":-89.0443,"dy":0.0025,"dx":0.0025,"nx":19,"ny":19,"refTime":"2026-05-14T03:00:00:Z","depth":0,"parameterNumber":3,"parameterNumberName":"V-component_of_WINDS"},"data":[0,0,0,-2.297,-2.2973,-2.3125,-2.3126,-2.3315,-2.3316,0,0,0,0,0,0,0,0,0,0,0,-2.2921,-2.2922,-2.2969,-2.2973,-2.3125,-2.3126,-2.3314,-2.3316,0,0,0,0,0,0,0,0,0,0,0,-2.292,-2.2922,-2.2923,-2.2974,-2.3125,-2.3126,-2.3314,-2.3201,0,0,0,0,0,0,0,0,0,0,-2.3055,-2.3005,-2.2921,-2.2923,-2.2975,-2.3125,-2.3126,-2.3196,-2.3208,-2.3243,0,-2.3273,0,-2.3298,-2.3329,-2.3329,0,0,0,-2.2976,-2.2995,-2.304,-2.2923,-2.2976,-2.3124,-2.3057,-2.3203,-2.3217,-2.326,-2.3276,-2.3283,-2.3301,-2.333,-2.3331,-2.3522,-2.3522,0,0,-2.2968,-2.2946,-2.303,-2.3049,-2.3024,-2.3052,-2.3062,-2.3212,-2.3228,-2.3276,-2.3287,-2.3304,-2.3331,-2.3332,-2.3521,-2.3522,0,0,0,-2.2942,-2.294,-2.2981,-2.3041,-2.3068,-2.3057,-2.3068,-2.3221,-2.3236,-2.3289,-2.3306,-2.3332,-2.3334,-2.352,-2.3521,-2.3537,0,0,0,-2.2937,-2.2925,-2.2977,-2.2965,-2.3065,-2.3146,-2.3074,-2.3226,-2.3243,-2.3305,-2.3332,-2.3336,-2.3519,-2.3521,-2.3535,-2.3548,0,0,0,-2.2912,-2.2922,-2.2943,-2.2964,-2.3029,-2.3145,-2.3168,-2.323,-2.3254,-2.3329,-2.3337,-2.3519,-2.352,-2.3533,-2.3545,-2.3592,0,0,0,-2.288,-2.2954,-2.2942,-2.3032,-2.3027,-2.3153,-2.3168,-2.3263,-2.333,-2.3333,-2.3519,-2.3521,-2.3532,-2.3543,-2.359,-2.3628,-2.3642,0,0,-2.2962,-2.2963,-2.3018,-2.3012,-2.3134,-2.3132,-2.3257,-2.3339,-2.3366,-2.3468,-2.3473,-2.3536,-2.3545,-2.3592,-2.3726,-2.3737,0,0,0,-2.3037,-2.3076,-2.3113,-2.3176,-2.324,-2.3297,-2.3362,-2.3393,-2.3481,-2.3414,-2.3566,-2.3572,-2.3601,-2.362,-2.3629,-2.3655,-2.3529,-2.3529,-2.3529,-2.3121,-2.3152,-2.3245,-2.3295,-2.3355,-2.3423,-2.3475,-2.3528,-2.3541,-2.3577,-2.3607,-2.3685,-2.3707,-2.3714,-2.3741,-2.363,-2.363,-2.363,-2.363,-2.3244,-2.3304,-2.3321,-2.3417,-2.345,-2.3531,-2.3599,-2.3606,-2.3687,-2.3664,-2.3691,-2.3663,-2.3724,-2.375,-2.3632,-2.3631,-2.3631,-2.3631,-2.3631,-2.3302,-2.3337,-2.3373,-2.3468,-2.3537,-2.3586,-2.3663,-2.369,-2.3716,-2.3743,-2.3778,-2.3778,-2.3782,-2.3758,-2.3758,-2.3758,-2.3759,-2.3759,-2.3759,-2.3349,-2.3389,-2.345,-2.3526,-2.357,-2.3633,-2.3702,-2.3747,-2.3803,-2.3817,-2.3818,-2.3828,-2.3725,-2.3698,-2.3763,-2.3763,-2.3762,-2.3762,-2.3761,-2.3462,-2.3441,-2.3535,-2.358,-2.3672,-2.374,-2.3774,-2.3863,-2.3904,-2.3942,-2.3947,-2.3866,-2.387,-2.3863,-2.3841,-2.3939,-2.3939,-2.3939,-2.3939,-2.3511,-2.3516,-2.3619,-2.3689,-2.376,-2.3801,-2.3908,-2.3964,-2.4017,-2.4045,-2.4035,-2.4008,-2.4,-2.4009,-2.3999,-2.3979,-2.411,-2.411,-2.4111,-2.3582,-2.3595,-2.3681,-2.3733,-2.3807,-2.387,-2.3972,-2.4052,-2.4109,-2.4118,-2.4067,-2.406,-2.4018,-2.4002,-2.4009,-2.3993,-2.3957,0,0]}]]